Temp
67 66 66 65 64 64 64 64 63 63 64 64 64 65 64 64 64 63 63 63 63 63 64 64 64 64 65 65 64 65 62 64
66 65 65 63 62 63 63 63 63 63 64 64 64 68 67 65 65 63 63 64 64 65 65 65 65 66 66 65 65 66 64 66
68 68 67 63 62 63 63 65 66 67 67 68 67 64 63 67 62 62 66 65 67 66 67 66 66 67 68 67 66 65 66 68
67 67 66 66 71 62 65 67 64 62 62 63 62 63 62 66 66 64 67 67 68 67 67 67 66 62 64 66 64 64 65 66
68 66 66 67 66 66 66 65 64 61 59 60 61 62 61 61 61 61 59 64 60 62 62 61 60 59 60 60 61 61 62 65
68 67 65 64 66 65 64 63 63 61 59 58 58 58 58 58 59 59 58 58 57 57 57 57 58 60 60 60 60 60 61 62
66 65 64 64 64 63 62 61 61 60 59 57 57 57 55 57 57 57 56 56 56 55 56 56 57 58 59 59 60 60 60 62
65 64 64 64 62 61 61 61 60 59 57 56 56 55 54 55 56 56 55 55 55 55 55 55 55 56 57 58 59 59 60 61
63 62 62 61 61 61 60 60 61 58 57 55 55 54 53 54 54 53 53 53 54 54 53 54 54 56 56 57 57 58 59 60
64 65 62 60 60 61 61 60 59 58 57 55 54 53 53 53 53 51 51 53 53 52 52 52 52 52 53 54 54 57 59 59
63 62 60 59 59 58 58 59 58 57 56 54 54 53 53 52 52 51 51 52 51 51 50 50 49 51 52 52 53 53 56 61
62 61 59 58 58 59 59 57 57 57 55 54 53 51 51 50 51 50 50 50 49 48 47 49 49 49 50 51 50 53 53 52
62 59 59 59 58 58 58 55 55 54 54 53 52 50 50 49 48 49 48 48 47 48 46 45 46 48 44 44 49 51 49 50
61 60 59 61 61 59 58 56 54 54 53 51 51 49 48 50 47 47 47 46 46 45 44 43 44 46 41 40 38 45 45 48
61 60 60 61 59 58 55 54 53 52 52 51 49 49 48 47 47 46 46 46 44 44 43 42 40 43 44 39 34 33 38 45
62 61 60 59 58 57 53 55 53 51 50 49 48 49 48 48 47 46 45 45 43 43 46 42 41 38 41 45 44 42 36 32
60 59 58 57 57 56 54 52 51 52 50 48 48 47 47 47 46 45 43 44 43 43 42 42 41 39 38 38 38 38 39 34
59 58 57 56 55 55 53 51 50 49 48 47 47 47 46 45 46 44 43 42 42 42 42 42 40 40 39 39 38 35 33 34
57 58 54 54 52 52 51 50 49 48 48 47 47 45 44 43 44 42 41 42 42 43 41 41 41 39 39 38 39 39 39 37
56 56 53 53 52 50 50 49 48 47 47 46 45 44 43 43 43 42 42 42 42 42 40 40 41 39 38 38 38 39 39 38
MSLP
1015.54 1016.10 1016.55 1016.81 1017.20 1017.40 1017.50 1017.61 1017.75 1017.85 1017.95 1017.88 1017.87 1017.88 1018.02 1018.06 1018.05 1017.97 1017.86 1017.73 1017.56 1017.34 1017.18 1016.98 1016.62 1016.30 1015.99 1015.76 1015.63 1015.21 1014.91 1014.50
1015.49 1016.11 1016.52 1017.04 1017.50 1017.65 1017.73 1017.88 1017.90 1017.98 1017.94 1017.90 1017.96 1017.79 1017.80 1017.80 1017.92 1018.01 1017.93 1017.74 1017.56 1017.36 1017.07 1016.66 1016.28 1015.86 1015.69 1015.48 1015.26 1014.85 1014.41 1013.94
1015.20 1015.53 1015.97 1016.79 1017.35 1017.56 1017.63 1017.80 1017.91 1017.96 1017.89 1017.74 1017.74 1017.90 1017.91 1017.53 1017.93 1017.94 1017.75 1017.69 1017.33 1017.26 1016.91 1016.56 1016.25 1015.90 1015.59 1015.34 1015.08 1014.68 1014.45 1013.94
1015.41 1015.61 1015.90 1016.16 1016.30 1017.16 1017.17 1017.46 1018.10 1018.33 1018.26 1018.10 1018.09 1017.91 1017.94 1017.72 1017.70 1017.85 1017.58 1017.54 1017.25 1017.12 1016.74 1016.46 1016.47 1016.41 1015.99 1015.64 1015.44 1015.26 1014.89 1014.31
1015.08 1015.60 1015.83 1015.84 1016.22 1016.57 1016.82 1017.28 1017.76 1018.42 1018.73 1018.38 1018.19 1018.16 1018.19 1018.04 1017.95 1017.86 1017.86 1017.70 1017.61 1017.41 1017.05 1016.92 1016.77 1016.58 1016.23 1015.91 1015.68 1015.39 1015.08 1014.64
1014.74 1015.26 1015.51 1015.75 1016.13 1016.38 1016.91 1017.32 1017.65 1018.13 1018.70 1018.76 1018.57 1018.59 1018.62 1018.39 1018.33 1018.16 1018.13 1018.09 1017.89 1017.72 1017.41 1017.24 1016.86 1016.47 1016.22 1015.95 1015.70 1015.33 1015.08 1014.74
1014.57 1015.22 1015.66 1015.84 1016.03 1016.54 1017.07 1017.49 1017.85 1018.25 1018.78 1019.15 1018.97 1018.85 1018.89 1018.52 1018.41 1018.38 1018.50 1018.42 1018.22 1017.94 1017.63 1017.37 1016.97 1016.36 1016.05 1015.81 1015.45 1015.25 1014.93 1014.63
1014.84 1015.39 1015.77 1015.83 1016.39 1016.84 1017.19 1017.53 1017.97 1018.36 1019.08 1019.30 1019.31 1019.16 1019.16 1018.86 1018.74 1018.75 1018.90 1018.77 1018.43 1018.10 1017.97 1017.62 1017.24 1016.69 1016.25 1015.82 1015.50 1015.15 1014.83 1014.39
1014.70 1015.27 1015.69 1016.14 1016.56 1016.87 1017.36 1017.49 1017.73 1018.27 1018.97 1019.48 1019.52 1019.44 1019.33 1018.99 1018.98 1019.19 1019.43 1018.96 1018.68 1018.51 1018.27 1017.88 1017.45 1016.81 1016.32 1015.82 1015.48 1015.17 1014.65 1014.31
1014.69 1015.11 1015.56 1016.10 1016.57 1016.82 1017.31 1017.51 1017.80 1018.23 1018.75 1019.17 1019.41 1019.59 1019.51 1019.22 1019.36 1019.60 1019.55 1018.96 1018.79 1018.80 1018.73 1018.34 1017.89 1017.23 1016.66 1016.13 1015.60 1014.94 1014.40 1013.95
1014.65 1015.15 1015.45 1015.93 1016.54 1016.99 1017.44 1017.60 1018.00 1018.37 1018.81 1019.31 1019.58 1019.90 1019.80 1019.58 1019.58 1019.89 1019.82 1019.39 1019.35 1019.44 1019.30 1018.92 1018.34 1017.77 1017.28 1016.57 1015.76 1015.01 1014.51 1014.05
1014.40 1015.01 1015.40 1015.87 1016.40 1016.78 1017.20 1017.61 1017.88 1018.35 1019.05 1019.58 1019.87 1020.12 1020.14 1020.02 1019.88 1020.09 1019.98 1019.85 1019.85 1019.87 1019.64 1019.32 1018.71 1018.37 1017.62 1016.76 1016.11 1014.91 1015.21 1014.86
1014.23 1014.85 1015.33 1015.71 1016.05 1016.34 1016.75 1017.35 1017.91 1018.51 1019.23 1019.74 1020.15 1020.47 1020.47 1020.36 1020.33 1020.15 1020.35 1020.16 1020.15 1020.20 1020.04 1019.74 1019.23 1018.74 1018.17 1017.12 1016.03 1015.51 1015.37 1015.62
1014.00 1014.83 1015.39 1015.45 1015.49 1015.80 1016.27 1017.10 1017.85 1018.47 1019.18 1019.97 1020.31 1020.49 1020.61 1020.41 1020.54 1020.56 1020.61 1020.36 1020.42 1020.43 1020.40 1020.27 1020.01 1019.46 1019.52 1018.85 1018.16 1016.21 1016.19 1016.59
1013.95 1014.66 1015.06 1015.00 1015.42 1016.03 1016.71 1017.37 1018.15 1018.58 1019.09 1019.79 1020.36 1020.43 1020.88 1020.89 1020.86 1020.88 1020.90 1020.72 1020.92 1020.80 1020.91 1020.76 1020.69 1020.28 1020.07 1020.57 1020.30 1019.21 1018.80 1017.04
1013.89 1014.60 1015.02 1015.23 1015.48 1016.06 1016.84 1017.25 1017.71 1018.50 1019.10 1019.72 1020.31 1020.64 1020.93 1021.22 1021.23 1021.25 1021.10 1021.07 1021.19 1021.07 1021.04 1021.22 1021.25 1021.13 1020.99 1021.13 1021.06 1020.93 1020.11 1018.72
1013.61 1014.50 1015.19 1015.59 1015.65 1015.70 1016.35 1017.09 1017.90 1018.57 1019.21 1019.80 1020.29 1020.58 1020.95 1021.22 1021.63 1021.70 1021.82 1021.60 1021.49 1021.41 1021.33 1021.33 1021.55 1021.49 1021.47 1021.53 1021.35 1021.22 1021.05 1021.13
1013.57 1014.43 1015.38 1016.02 1016.19 1016.68 1016.64 1017.31 1017.97 1018.63 1019.06 1019.54 1020.00 1020.63 1020.86 1021.48 1021.63 1021.88 1022.21 1021.98 1021.84 1021.65 1021.59 1021.52 1021.77 1021.66 1021.66 1021.71 1021.52 1021.40 1021.31 1021.59
1013.59 1014.44 1015.36 1016.27 1016.78 1017.01 1017.25 1017.64 1018.17 1018.60 1018.97 1019.42 1019.98 1020.69 1021.26 1021.84 1021.97 1022.33 1022.49 1022.31 1021.70 1021.69 1021.78 1021.73 1021.83 1022.04 1022.10 1022.16 1021.75 1021.31 1021.17 1021.19
1013.28 1014.38 1015.36 1016.16 1016.80 1017.23 1017.67 1018.14 1018.57 1019.15 1019.28 1019.61 1020.22 1021.08 1021.54 1022.13 1022.32 1022.54 1022.54 1022.47 1021.94 1021.85 1022.06 1021.95 1022.07 1022.46 1022.51 1022.46 1022.14 1021.69 1021.44 1021.10
Wind_Speed
11 10 12 15 14 14 14 13 13 12 10 8 8 9 9 10 11 12 12 14 13 13 14 15 15 15 14 14 13 14 9 7
13 12 12 10 8 13 13 11 10 9 8 3 3 4 5 10 9 9 10 12 11 11 13 15 16 17 16 14 15 16 9 9
5 6 10 11 10 9 11 11 8 8 5 6 2 4 4 5 4 2 7 9 10 11 11 13 14 13 16 9 14 5 9 8
7 6 7 8 8 9 6 6 6 5 6 5 4 4 4 5 4 4 10 10 12 13 13 11 12 6 6 11 5 9 7 6
10 7 6 6 6 4 3 3 4 5 6 5 4 4 4 4 3 3 4 10 4 6 6 5 6 5 5 4 5 5 5 6
11 9 5 6 4 4 4 3 4 4 6 6 4 3 4 4 3 4 4 4 5 5 3 6 6 6 6 6 6 5 4 4
11 9 6 4 6 4 5 4 4 5 5 5 5 4 4 3 3 4 4 5 5 5 5 6 6 6 6 6 6 7 6 5
8 8 7 5 6 6 4 5 4 6 5 4 5 4 4 4 4 5 6 5 5 5 6 6 6 6 7 6 8 7 8 8
9 8 7 7 7 6 5 3 5 5 6 5 6 5 5 5 4 4 5 5 6 5 5 6 6 8 8 8 8 10 8 8
11 11 9 8 7 5 4 4 4 4 5 5 6 6 6 5 4 4 5 4 4 6 7 7 7 7 8 8 8 8 9 9
11 11 10 8 7 5 5 5 5 4 5 5 6 6 6 5 4 4 6 4 5 6 6 7 7 8 10 9 8 8 8 7
11 9 10 9 7 6 5 5 4 5 5 5 6 5 6 5 5 5 5 4 5 6 6 7 6 8 11 9 10 6 9 7
12 12 10 8 7 7 7 5 5 5 7 7 6 5 5 6 4 5 5 4 5 7 6 9 7 9 6 8 5 4 15 7
12 11 10 8 6 3 4 5 5 6 5 7 5 6 6 6 5 5 5 4 6 6 8 5 4 8 6 5 6 5 13 7
11 11 10 4 8 6 6 6 4 4 4 6 5 6 6 6 6 5 5 5 5 5 6 7 6 6 8 4 5 5 11 4
10 10 7 7 8 9 10 6 6 4 5 4 6 6 6 6 6 6 5 4 5 5 5 4 5 5 5 6 4 6 5 7
10 10 9 6 4 7 4 8 7 4 5 6 6 6 7 6 6 6 6 4 5 5 5 5 4 3 3 3 3 3 5 4
10 11 9 6 4 5 7 8 7 6 5 4 5 4 5 6 6 5 5 4 4 4 5 6 5 5 4 5 3 2 3 3
12 12 11 8 7 6 7 7 6 7 6 5 5 4 5 5 5 5 3 4 4 4 5 5 5 5 5 4 4 3 2 1
14 13 12 10 9 8 7 7 4 4 5 5 5 5 5 5 4 5 5 5 5 4 4 5 5 5 7 6 5 5 4 3
Wind_Direction
123 119 109 102 99 94 90 87 82 78 74 79 83 95 83 64 51 30 24 17 11 5 357 344 336 331 322 313 307 295 287 273
129 145 138 124 112 111 104 100 103 101 96 86 191 114 108 92 42 34 23 9 5 354 352 338 330 323 308 290 286 295 271 253
131 134 126 134 141 135 127 130 116 99 99 38 93 80 21 37 99 60 26 3 352 349 340 319 315 327 345 319 282 307 348 326
148 139 144 172 132 161 151 125 81 59 25 21 360 45 19 334 89 187 13 26 356 354 345 352 15 343 333 343 337 338 318 303
148 133 168 173 121 164 123 89 110 98 45 2 13 46 1 351 21 7 358 16 6 351 341 14 336 330 317 320 315 316 312 310
141 147 137 118 160 115 112 106 116 91 82 12 1 49 5 359 25 2 13 359 2 342 333 343 328 317 320 318 309 306 312 306
142 139 141 137 113 98 101 121 71 91 73 53 9 41 360 9 17 14 27 348 356 336 360 330 330 323 327 317 319 312 304 291
136 139 141 149 106 119 113 116 141 102 82 65 40 32 1 354 21 18 24 340 341 348 346 341 333 334 328 323 330 318 315 302
148 137 136 126 132 141 108 131 109 102 115 69 65 43 10 349 34 33 11 320 349 357 343 342 338 335 321 338 325 319 307 303
157 152 142 153 133 127 119 121 106 104 101 92 66 44 22 360 46 34 339 335 11 2 358 346 342 322 340 327 315 306 320 297
167 151 147 133 135 114 119 124 102 89 78 76 67 47 22 4 53 29 337 346 15 9 354 348 328 350 331 316 326 307 300 7
155 156 143 144 151 156 137 131 110 101 78 71 56 47 20 16 37 22 358 8 15 9 0 352 341 345 326 327 303 288 32 3
163 149 157 158 168 164 158 137 124 106 99 69 64 53 23 47 19 21 8 10 28 13 2 354 359 4 342 333 318 82 32 11
163 163 172 186 167 110 105 104 75 96 104 104 72 66 38 44 31 17 10 354 34 12 21 355 347 24 2 322 342 314 20 347
160 160 185 149 102 102 81 83 135 142 138 104 74 69 50 35 33 18 9 13 24 13 25 1 4 11 11 32 333 351 330 353
165 164 151 126 155 147 164 174 142 96 101 91 105 76 65 45 28 24 22 21 31 8 16 7 31 9 358 9 356 315 336 321
164 154 147 143 193 108 130 94 114 121 102 126 121 119 88 56 44 31 23 21 26 16 15 33 19 12 18 341 349 355 35 329
154 151 136 142 100 127 117 123 133 134 137 134 104 98 105 59 61 38 39 18 20 6 28 36 30 4 11 341 335 4 14 9
152 163 145 143 145 129 112 108 89 102 136 86 110 107 78 71 56 49 28 17 15 3 48 24 26 9 23 351 319 15 351 145
159 160 153 155 150 129 110 111 102 88 83 98 75 82 84 72 63 69 41 27 11 15 53 16 18 16 27 8 334 15 336 351